Wind_Speed
13 14 13 12 12 15 15 12 11 14 14 13 15 17 19 20 21 21 22 22 22 21 21 19 17 16 14 14 14 15 13 12 14 14 14 14 13 11 9 7 7 7 7
12 15 16 15 14 14 15 14 12 15 16 15 15 19 20 19 19 20 20 19 18 19 20 20 18 17 16 16 16 18 17 15 14 15 16 14 12 11 9 8 8 7 8
12 15 15 17 19 17 14 13 12 13 19 19 17 20 20 18 18 18 19 19 18 18 19 20 19 17 16 16 17 20 20 17 16 15 16 14 12 11 11 10 9 8 8
13 14 14 20 23 19 14 14 15 13 16 21 19 17 18 19 17 19 19 19 19 19 19 21 20 17 16 15 17 20 20 18 16 16 16 14 12 12 11 10 9 8 8
16 14 14 21 24 23 18 14 13 16 16 20 21 17 16 18 17 17 18 18 17 17 18 20 21 18 17 16 18 19 20 19 18 17 16 15 13 12 11 9 9 9 8
15 15 20 22 24 24 23 21 17 16 19 20 22 20 17 17 18 18 18 18 17 17 17 19 20 19 19 18 19 20 19 19 19 18 18 16 15 13 11 10 10 10 10
19 22 26 25 24 25 26 24 20 16 19 22 23 23 19 18 18 19 18 18 17 17 17 19 20 19 20 21 20 20 21 20 21 21 20 18 16 15 14 13 12 12 12
21 25 27 25 24 25 26 25 24 20 20 23 24 24 23 19 19 19 19 20 20 18 17 18 21 21 21 23 21 21 22 22 22 23 22 21 19 17 17 17 16 14 14
25 26 27 26 25 24 25 27 26 23 22 24 23 25 25 19 19 20 19 19 21 20 19 19 21 23 25 25 23 23 22 22 23 23 23 22 21 20 18 19 18 18 17
25 26 25 24 23 22 24 26 27 23 23 26 26 25 23 21 18 20 19 18 20 21 21 22 22 23 26 26 24 23 23 22 22 22 21 20 20 20 19 19 19 20 19
26 23 22 23 22 22 24 25 26 23 22 28 30 29 26 21 18 19 19 17 17 18 19 20 21 22 26 25 24 23 21 20 21 21 20 19 19 20 19 18 18 20 21
24 23 23 24 24 24 24 24 22 24 24 29 30 28 25 24 22 19 18 16 14 15 15 16 19 21 22 25 24 22 20 20 21 21 19 18 18 19 19 18 17 18 19
26 26 24 24 23 22 23 20 19 22 26 29 31 32 24 24 26 22 18 15 15 16 16 16 16 18 20 23 24 22 21 21 21 21 20 20 19 17 17 17 16 15 15
27 27 25 24 24 22 20 17 17 19 21 24 29 26 22 25 30 29 23 19 18 18 18 18 17 17 18 20 23 23 22 23 24 23 22 21 19 18 16 15 14 14 16
26 24 24 24 24 22 20 14 15 18 17 19 20 21 18 16 17 23 24 24 23 22 22 22 21 20 18 17 19 20 21 22 23 22 21 20 19 18 17 16 15 16 17
26 24 23 24 24 22 20 14 12 15 19 19 19 20 19 19 18 18 20 24 26 28 27 25 25 25 22 21 20 18 19 19 20 21 21 20 20 20 19 18 19 19 19
25 24 23 23 21 21 18 13 12 13 16 17 17 17 16 16 17 18 21 23 27 29 28 29 28 28 25 24 23 22 21 21 21 22 22 22 22 22 22 22 22 21 20
26 23 22 22 20 20 17 15 12 12 12 13 12 13 16 17 18 17 18 17 21 27 29 31 30 30 26 25 21 24 24 24 24 24 25 24 25 25 24 23 22 22 21
23 22 21 21 20 20 20 18 16 16 16 15 13 14 16 16 16 21 24 23 22 25 31 35 33 29 27 26 26 26 25 24 25 25 25 25 24 24 24 23 22 23 23
21 23 21 21 21 21 23 22 20 19 19 19 19 19 20 20 19 21 24 26 29 28 31 37 40 33 27 26 28 29 26 24 24 25 27 27 25 25 25 25 25 26 25
21 22 22 21 22 23 23 24 25 25 23 22 22 22 23 23 23 23 24 25 27 28 30 35 40 40 33 32 31 30 27 25 25 27 28 29 28 29 28 27 27 27 28
15 20 22 18 20 23 26 26 27 27 26 24 24 23 23 24 24 23 21 22 23 27 33 38 44 42 36 35 33 30 27 25 28 30 28 29 30 30 30 30 31 31 30
17 16 14 14 14 18 24 24 24 25 25 25 25 26 26 26 25 25 23 22 22 22 25 34 43 46 43 36 35 32 30 29 30 30 31 32 32 33 33 33 34 35 35
17 16 15 15 15 16 18 21 19 20 22 23 24 26 26 26 28 29 26 24 22 24 24 28 37 39 39 38 40 38 31 28 29 32 33 33 32 33 32 33 33 34 34
16 15 15 16 17 17 16 18 20 20 20 22 23 24 26 27 28 30 29 27 25 23 23 25 30 32 34 36 34 33 32 30 29 30 32 32 32 32 30 31 32 33 35
17 16 17 19 21 21 21 23 23 23 24 25 24 24 25 27 28 28 28 27 25 24 20 19 22 21 20 25 28 31 34 33 32 32 34 33 34 33 31 33 35 35 35
Wind_Direction
349 351 351 347 343 340 334 319 287 271 264 253 248 248 249 249 247 246 247 248 250 255 257 254 246 251 258 253 235 222 213 201 204 210 199 201 207 220 233 240 243 258 272
334 339 341 350 347 343 335 327 296 271 265 256 254 255 254 255 252 248 247 247 248 250 249 244 241 246 253 248 232 216 209 200 197 199 198 202 213 225 236 245 250 261 274
317 323 328 340 336 336 334 324 298 272 263 257 252 254 254 254 255 249 245 247 251 254 252 245 241 246 251 244 227 207 205 202 200 197 199 208 219 228 237 241 245 257 269
294 295 312 329 324 318 322 319 303 277 257 257 255 250 249 252 249 249 251 253 254 253 245 240 242 245 244 235 217 203 202 203 205 205 206 213 222 228 238 236 237 247 253
289 280 310 316 306 307 309 300 287 276 261 255 256 250 244 252 247 247 250 247 249 245 234 229 238 242 242 232 215 209 207 208 211 212 212 217 224 229 239 237 233 236 233
294 277 300 300 295 294 297 293 279 262 261 255 251 248 246 247 241 243 243 239 239 235 230 224 230 236 236 228 216 212 211 213 216 218 218 219 223 232 239 241 232 229 221
302 291 295 298 290 284 284 282 272 258 252 253 249 247 247 249 244 240 239 232 222 223 222 219 224 228 225 221 217 213 212 214 218 221 222 223 226 235 241 242 234 224 218
297 290 289 288 282 277 279 282 279 268 247 248 252 248 245 243 245 241 235 228 217 215 223 221 222 222 217 217 217 215 215 216 221 224 225 227 230 235 237 237 230 220 212
301 292 289 288 285 283 278 274 272 263 246 241 246 243 242 233 237 237 233 224 218 216 225 230 227 223 217 215 215 215 215 217 223 229 232 232 231 230 233 233 225 217 211
299 297 296 293 290 288 279 271 268 264 246 238 242 239 236 234 229 231 230 221 217 218 224 232 235 228 220 218 217 216 214 216 221 225 228 225 222 221 225 227 222 218 217
302 296 296 291 292 290 280 268 261 263 253 243 247 247 236 228 213 216 225 220 216 218 221 226 233 231 224 222 221 220 216 217 219 218 216 215 218 219 223 224 221 222 224
296 293 295 293 294 291 279 272 263 256 251 248 247 249 239 225 208 213 223 221 217 221 223 222 226 229 225 222 222 222 219 217 218 217 217 221 228 230 232 233 230 230 232
291 289 289 289 288 284 278 275 262 249 243 239 242 245 238 232 217 210 216 219 224 228 229 224 223 228 226 222 221 222 223 221 221 224 228 234 235 236 237 237 237 236 239
292 294 293 292 288 284 279 277 256 243 240 239 247 239 232 239 222 216 215 216 222 230 231 230 224 225 229 227 228 227 226 226 228 231 236 237 236 237 237 238 242 247 251
293 294 289 287 284 281 281 280 248 241 245 249 255 256 259 262 241 235 222 219 222 226 232 232 234 231 230 230 229 229 226 225 227 231 233 234 235 236 239 244 248 253 257
289 292 289 282 276 272 272 270 247 244 249 253 257 255 255 259 247 245 244 235 229 229 235 237 237 236 231 231 231 229 229 227 226 228 229 230 232 236 240 245 248 250 251
282 285 284 280 275 271 265 262 251 244 241 246 254 252 248 244 243 242 245 245 238 232 233 237 241 238 233 233 233 233 233 233 232 231 231 233 235 238 241 244 247 248 249
273 270 273 275 271 266 262 255 250 247 249 250 251 245 242 235 246 242 234 245 244 235 231 233 237 238 231 230 230 236 232 234 236 237 238 238 238 240 244 247 249 251 251
261 254 260 269 266 263 263 259 254 251 253 257 254 248 244 239 247 240 238 250 254 246 237 235 229 230 229 231 232 236 233 234 236 239 242 242 241 242 245 249 253 256 255
253 250 255 263 266 264 262 262 258 257 257 258 258 256 255 254 256 254 248 254 252 254 244 233 226 222 227 231 237 246 240 239 241 241 242 244 244 245 247 251 253 253 252
254 251 252 258 265 266 264 261 261 261 261 259 255 252 254 257 260 259 256 256 252 250 246 234 225 221 229 236 240 242 242 242 246 246 244 244 246 248 249 250 251 253 254
279 261 257 256 263 269 269 265 262 262 260 258 254 251 251 253 257 258 255 251 251 246 245 232 224 223 224 232 231 236 240 241 247 250 249 247 248 252 253 252 252 253 257
316 304 287 278 280 278 264 262 261 260 260 258 258 256 253 253 255 254 253 249 245 242 246 235 225 217 223 228 232 236 239 244 249 248 249 252 252 255 256 258 258 257 258
312 301 290 287 288 284 269 256 259 258 262 263 262 262 260 259 257 255 253 249 244 240 247 244 229 224 228 235 232 228 235 243 251 250 250 253 253 256 258 261 260 259 258
312 301 293 287 282 278 268 261 251 257 258 262 263 262 262 260 256 255 253 250 246 242 243 248 236 233 236 232 226 229 236 245 246 245 246 250 253 252 253 255 256 256 257
311 302 296 290 283 278 272 266 260 257 258 260 262 261 258 256 255 255 254 251 248 247 244 236 242 247 237 225 230 238 240 241 242 243 247 251 255 255 254 255 256 255 256
Height
5877 5875 5874 5871 5870 5867 5864 5864 5862 5860 5861 5863 5866 5867 5867 5868 5870 5872 5874 5876 5877 5878 5878 5879 5879 5880 5880 5881 5882 5883 5885 5886 5888 5890 5892 5894 5896 5897 5898 5900 5900 5900 5900
5874 5872 5870 5868 5867 5866 5862 5860 5860 5858 5858 5858 5861 5863 5863 5865 5866 5867 5868 5871 5872 5873 5873 5874 5876 5876 5877 5878 5879 5881 5883 5885 5887 5889 5891 5893 5895 5896 5896 5897 5898 5899 5899
5871 5869 5867 5867 5865 5863 5860 5857 5854 5857 5856 5855 5855 5857 5859 5860 5862 5863 5863 5865 5867 5869 5870 5871 5872 5873 5873 5874 5876 5878 5881 5883 5885 5887 5890 5892 5893 5894 5895 5895 5896 5897 5898
5867 5866 5864 5864 5863 5860 5856 5855 5851 5850 5853 5853 5852 5852 5855 5856 5856 5858 5859 5860 5862 5864 5865 5868 5868 5870 5870 5871 5873 5875 5878 5881 5883 5886 5888 5890 5892 5893 5894 5893 5894 5895 5896
5862 5861 5860 5859 5858 5854 5853 5853 5850 5847 5847 5848 5849 5850 5851 5851 5852 5854 5855 5856 5857 5859 5861 5863 5865 5867 5868 5869 5871 5873 5875 5878 5881 5883 5886 5888 5890 5891 5891 5891 5892 5892 5894
5858 5856 5855 5855 5854 5850 5848 5848 5846 5843 5842 5842 5843 5845 5846 5847 5849 5850 5851 5852 5853 5854 5856 5859 5862 5864 5865 5866 5868 5870 5872 5875 5877 5880 5883 5885 5886 5887 5888 5889 5890 5891 5892
5854 5852 5850 5849 5848 5846 5844 5842 5841 5840 5838 5837 5837 5838 5840 5842 5845 5846 5847 5849 5849 5851 5852 5854 5857 5859 5861 5863 5864 5867 5869 5871 5873 5876 5879 5881 5883 5884 5884 5886 5887 5888 5889
5847 5845 5843 5841 5840 5838 5837 5836 5835 5836 5834 5834 5833 5833 5834 5838 5840 5843 5843 5845 5845 5847 5849 5850 5852 5854 5857 5859 5861 5862 5865 5867 5870 5872 5875 5877 5879 5881 5881 5883 5884 5885 5887
5841 5839 5837 5834 5833 5833 5831 5829 5828 5829 5830 5830 5830 5828 5829 5831 5834 5838 5840 5840 5841 5843 5846 5847 5848 5850 5853 5855 5857 5859 5861 5864 5866 5868 5870 5872 5875 5877 5878 5879 5881 5882 5884
5835 5833 5831 5828 5826 5824 5822 5821 5822 5822 5823 5825 5825 5823 5824 5826 5829 5833 5836 5836 5837 5839 5841 5843 5844 5845 5848 5851 5854 5856 5858 5861 5863 5865 5866 5868 5870 5873 5874 5876 5877 5879 5881
5827 5826 5824 5822 5818 5817 5815 5813 5814 5816 5817 5819 5820 5819 5820 5821 5824 5827 5831 5832 5833 5835 5836 5838 5840 5842 5844 5848 5851 5853 5854 5857 5859 5861 5863 5865 5867 5869 5871 5872 5873 5875 5876
5822 5820 5817 5815 5813 5811 5808 5808 5808 5808 5809 5812 5814 5814 5815 5817 5819 5823 5827 5828 5829 5832 5833 5834 5835 5837 5840 5843 5847 5850 5852 5853 5856 5858 5859 5861 5863 5865 5866 5868 5869 5870 5871
5814 5812 5809 5807 5805 5804 5802 5801 5802 5800 5801 5805 5807 5808 5809 5811 5814 5818 5821 5823 5826 5828 5830 5832 5832 5834 5836 5839 5841 5845 5848 5850 5852 5854 5856 5857 5858 5860 5862 5863 5864 5866 5866
5806 5805 5804 5802 5800 5799 5797 5796 5794 5793 5794 5798 5800 5802 5804 5807 5810 5813 5817 5819 5822 5824 5826 5829 5830 5831 5832 5835 5837 5840 5843 5845 5848 5850 5852 5853 5855 5856 5858 5859 5860 5862 5863
5801 5798 5796 5795 5795 5794 5792 5791 5788 5788 5790 5793 5795 5797 5799 5801 5804 5808 5812 5816 5818 5819 5821 5824 5828 5829 5829 5830 5832 5835 5838 5841 5843 5845 5847 5848 5850 5852 5853 5854 5855 5858 5859
5795 5793 5791 5791 5790 5789 5788 5787 5786 5785 5786 5787 5790 5793 5795 5796 5798 5801 5806 5809 5812 5815 5817 5820 5824 5826 5825 5826 5827 5830 5833 5836 5838 5840 5842 5844 5845 5847 5848 5850 5851 5853 5855
5787 5787 5785 5785 5785 5785 5784 5784 5783 5782 5783 5784 5786 5788 5791 5792 5794 5796 5799 5803 5806 5808 5811 5814 5817 5820 5821 5822 5823 5825 5827 5830 5833 5835 5837 5838 5841 5842 5844 5845 5846 5848 5849
5779 5779 5779 5778 5778 5779 5779 5780 5780 5780 5781 5782 5782 5784 5786 5788 5791 5792 5795 5797 5799 5802 5804 5808 5811 5813 5815 5817 5819 5821 5823 5825 5827 5830 5832 5834 5835 5837 5839 5840 5841 5842 5844
5772 5773 5773 5773 5772 5772 5773 5773 5775 5776 5778 5778 5780 5781 5782 5784 5786 5787 5789 5790 5792 5794 5797 5800 5803 5805 5808 5811 5813 5815 5817 5819 5822 5824 5826 5827 5829 5831 5833 5834 5835 5837 5838
5766 5767 5767 5767 5767 5766 5767 5768 5769 5771 5772 5773 5774 5776 5777 5780 5781 5782 5782 5783 5784 5786 5789 5792 5795 5798 5801 5803 5806 5809 5811 5813 5815 5817 5819 5821 5822 5825 5827 5829 5831 5832 5833
5761 5762 5762 5762 5761 5760 5760 5762 5763 5765 5767 5768 5768 5769 5771 5773 5775 5776 5776 5776 5776 5777 5779 5783 5786 5791 5794 5797 5800 5802 5805 5807 5809 5810 5813 5815 5817 5818 5820 5823 5825 5826 5826
5758 5757 5756 5756 5756 5754 5754 5755 5757 5758 5760 5761 5762 5763 5765 5766 5767 5768 5768 5769 5769 5769 5770 5774 5778 5783 5786 5789 5792 5795 5799 5802 5802 5805 5806 5808 5810 5810 5812 5815 5817 5819 5819
5753 5751 5750 5749 5749 5748 5747 5748 5750 5751 5752 5754 5755 5756 5757 5759 5760 5761 5762 5763 5764 5763 5764 5766 5769 5774 5778 5781 5784 5788 5791 5793 5795 5797 5798 5798 5801 5801 5804 5806 5808 5810 5811
5747 5745 5744 5743 5743 5742 5741 5741 5743 5743 5745 5747 5748 5749 5750 5751 5752 5753 5755 5756 5758 5759 5761 5762 5765 5767 5769 5773 5777 5780 5783 5785 5786 5789 5789 5790 5793 5795 5797 5797 5799 5801 5802
5742 5741 5738 5737 5737 5736 5736 5735 5737 5737 5738 5740 5741 5742 5743 5744 5745 5746 5747 5749 5750 5752 5755 5756 5758 5761 5762 5765 5769 5773 5774 5776 5779 5780 5781 5783 5783 5786 5789 5789 5789 5791 5792
5737 5736 5733 5731 5731 5730 5730 5729 5729 5731 5731 5732 5733 5734 5734 5735 5737 5738 5739 5742 5744 5745 5749 5751 5752 5754 5756 5757 5760 5763 5766 5768 5771 5772 5771 5773 5773 5776 5778 5778 5778 5781 5781